This is the latest recevied weather packets stored in our database for station/object KF7ROW. If no packets are shown the sender has not sent any weather packets the latest 10 day(s).
| Time | Temp. | Humidity | Pressure | Rain* | Wind** | Luminosity | Snow |
|---|---|---|---|---|---|---|---|
| 1778091647 | 12.78° C | 88% | 1026.6 hPa | 0 mm | - | 187 W/m² | - |
| 1778091345 | 12.78° C | 88% | 1026.5 hPa | 0 mm | - | 173 W/m² | - |
| 1778091041 | 12.78° C | 87% | 1026.6 hPa | 0 mm | - | 145 W/m² | - |
| 1778090738 | 12.78° C | 87% | 1026.7 hPa | 0 mm | - | 134 W/m² | - |
| 1778090435 | 13.33° C | 87% | 1026.4 hPa | 0 mm | - | 130 W/m² | - |
| 1778090131 | 13.33° C | 87% | 1026.5 hPa | 0 mm | - | 145 W/m² | - |
| 1778089828 | 12.78° C | 87% | 1026.4 hPa | 0 mm | - | 139 W/m² | - |
| 1778089527 | 13.33° C | 87% | 1026.3 hPa | 0 mm | - | 117 W/m² | - |
| 1778089222 | 12.78° C | 86% | 1026.4 hPa | 0 mm | - | 123 W/m² | - |
| 1778088920 | 12.78° C | 86% | 1026.3 hPa | 0 mm | - | 136 W/m² | - |
| 1778088617 | 12.78° C | 85% | 1026.2 hPa | 0 mm | - | 153 W/m² | - |
| 1778088314 | 12.78° C | 85% | 1026.1 hPa | 0 mm | - | 146 W/m² | - |
| 1778088010 | 13.33° C | 87% | 1026 hPa | 0 mm | - | 118 W/m² | - |
| 1778087708 | 12.78° C | 85% | 1026.2 hPa | 0 mm | - | 131 W/m² | - |
| 1778087405 | 12.78° C | 85% | 1026 hPa | 0 mm | - | 144 W/m² | - |
| 1778087101 | 13.33° C | 84% | 1025.9 hPa | 0 mm | - | 139 W/m² | - |
| 1778086794 | 12.78° C | 85% | 1026.2 hPa | 0 mm | - | 124 W/m² | - |
| 1778086492 | 12.78° C | 85% | 1025.8 hPa | 0 mm | - | 147 W/m² | - |
| 1778086183 | 12.78° C | 86% | 1026.1 hPa | 0 mm | - | 117 W/m² | - |
| 1778085880 | 12.78° C | 86% | 1026 hPa | 0 mm | - | 91 W/m² | - |
| 1778085577 | 12.78° C | 85% | 1026 hPa | 0 mm | - | 91 W/m² | - |
| 1778085272 | 12.78° C | 85% | 1026.1 hPa | 0 mm | - | 96 W/m² | - |
| 1778084967 | 12.78° C | 85% | 1025.9 hPa | 0 mm | - | 102 W/m² | - |
| 1778084664 | 12.78° C | 85% | 1026.1 hPa | 0 mm | - | 100 W/m² | - |
| 1778084356 | 12.78° C | 85% | 1025.8 hPa | 0 mm | - | 99 W/m² | - |
* Rain latest hour (hover to see other rain measurements)
** Current wind speed in m/s (hover to see current wind gust speed)